Flag for United Kingdom

Past Weather in Swansea, Wales, United Kingdom — Yesterday and Last 2 Weeks

Now
59 °F

Cool.


Feels Like: N/A
Forecast: 61 / 57 °F
Wind: N/A

Location: Mumbles

Current Time: Jul 4, 2020 at 8:36:34 pm

Latest Report: Jul 4, 2020 at 7:00 pm


Visibility: N/A

Pressure: 29.90 "Hg

Humidity: 98%

Dew Point: 59 °F

Location of SwanseaLocation

Past Weather in Swansea — Graph

°F

Swansea Temperature Yesterday

Maximum temperature yesterday: 59 °F (at 2:00 pm)
Minimum temperature yesterday: 57 °F (at 4:00 pm)
Average temperature yesterday: 58 °F

High & Low Weather Summary for the Past Weeks

 TemperatureHumidityPressure
High80 °F (Jun 24, 7:00 pm)99% (Jul 4, 6:00 am)30.25 "Hg (Jul 4, 6:00 am)
Low55 °F (Jun 22, 6:00 am)41% (Jun 24, 7:00 pm)29.56 "Hg (Jun 27, 7:00 am)
Average61 °F81%29.92 "Hg
* Reported Jun 19 7:00 pm — Jul 4 7:00 pm, Swansea. Weather by CustomWeather, © 2020

Note: Actual official high and low records may vary slightly from our data, if they occured in-between our weather recording intervals... More about our weather records

Swansea Weather History for the Previous 24 Hours

Scroll right to see more
 ConditionsComfort  
Time TempWeatherWind HumidityBarometerVisibility
7:00 pm
Sat, Jul 4
59 °FCool.N/A98%29.90 "HgN/A
6:00 pm59 °FCool.N/A98%29.89 "HgN/A
5:00 pm59 °FCool.N/A98%29.86 "HgN/A
4:00 pm60 °FCool.N/A98%29.85 "HgN/A
3:00 pm60 °FCool.N/A98%29.84 "HgN/A
2:00 pm60 °FCool.N/A98%29.85 "HgN/A
1:00 pm60 °FCool.N/A98%29.87 "HgN/A
12:00 pm59 °FCool.N/A98%29.86 "HgN/A
11:00 am59 °FCool.N/A98%29.89 "HgN/A
10:00 am59 °FCool.N/A98%29.90 "HgN/A
9:00 am59 °FCool.N/A98%29.87 "HgN/A
8:00 am58 °FCool.N/A97%29.90 "HgN/A
7:00 am59 °FCool.N/A98%29.84 "HgN/A
6:00 am59 °FCool.28 mph99%29.85 "HgN/A
5:00 am59 °FCool.30 mph98%29.83 "HgN/A
4:00 am59 °FCool.32 mph98%29.84 "HgN/A
3:00 am59 °FCool.33 mph98%29.84 "HgN/A
2:00 am59 °FCool.35 mph98%29.87 "HgN/A
1:00 am59 °FCool.36 mph98%29.86 "HgN/A
12:00 am59 °FCool.37 mph98%29.87 "HgN/A
11:00 pm
Fri, Jul 3
59 °FCool.36 mph98%29.88 "HgN/A
10:00 pm59 °FCool.33 mph98%29.90 "HgN/A
9:00 pm59 °FCool.36 mph98%29.90 "HgN/A
8:00 pm58 °FCool.37 mph97%29.93 "HgN/A
Weather by CustomWeather, © 2020

See weather overview